Regional Weather Roundup
Issued by NWS Spokane, WA

Home | Current Version | Previous Version | Text Only | Print | Product List | Glossary On
Versions: 1 2 3 4 5 6 7 8 9 10 11 12 13 14 15 16 17 18 19 20 21 22 23 24 25 26 27 28 29 30 31 32 33 34 35 36 37 38 39 40 41 42 43 44 45 46 47 48 49 50
352
NZUS01 KOTX 251025
RWROTX

Eastern Washington/Northern Idaho Roundup
National Weather Service, Spokane WA
300 AM PDT SAT MAR 25 2017

Note: "fair" indicated few or no clouds below 12,000 feet with no
significant weather and/or obstructions to visibility.

...Northeast Washington and Northern Idaho Panhandle...

CITY           SKY/WX    TMP DP  RH WIND       PRES   REMARKS
Spokane Intl   CLOUDY    38  36  92 S13G18    29.99S
Spokane Downto CLOUDY    41  39  93 CALM      30.01
Coeur d Alene  CLOUDY    41  38  89 S7        30.02S
Deer Park      CLOUDY    39  37  92 S9        30.00F
Sandpoint      CLOUDY    39  37  93 S5        30.00S
Bonners Ferry  LGT RAIN  39  37  93 CALM      29.97S

...Southeast Washington and southern Idaho Panhandle...

CITY           SKY/WX    TMP DP  RH WIND       PRES   REMARKS
Walla Walla    CLOUDY    47  39  74 S9        30.06S
Pullman/Moscow LGT RAIN  40  35  83 S7        30.05S
Lewiston       MOCLDY    42  39  89 CALM      30.06S
Lowell           N/A     40  38  93 N3        30.12R
Grangeville    PTSUNNY   36  34  93 CALM      30.05R

...Columbia Basin...

CITY           SKY/WX    TMP DP  RH WIND       PRES   REMARKS
Ephrata        CLEAR     40  33  76 CALM      29.98R
Moses Lake     CLEAR     43  35  73 S9        29.99S
Pasco          MOCLDY    46  39  76 SW13      30.07R
Richland       CLOUDY    47  40  76 S6        30.07R
Hermiston      PTCLDY    37  36  96 CALM      30.06S
Pendleton      PTCLDY    41  35  79 S5        30.05F

...East Slopes Cascades...

CITY           SKY/WX    TMP DP  RH WIND       PRES   REMARKS
The Dalles     CLOUDY    46  42  86 CALM      30.10R
Yakima         CLEAR     41  35  79 CALM      30.02R
Ellensburg     PTCLDY    37  32  82 W7        30.00R
Wenatchee      PTCLDY    36  35  96 S3        29.98R
Omak           PTCLDY    36  32  85 S3        29.96S
Sunnyside        N/A     43  35  72 W6        30.04S

...Southern British Columbia...

CITY           SKY/WX    TMP DP  RH WIND       PRES   REMARKS
Penticton      CLOUDY    41  37  87 S14       29.92S
Cranbrook      PTCLDY    36  30  80 E6        29.90S
Osoyoos          N/A     43  39  87 S5          N/A
Creston          N/A     36  36 100 NE5         N/A

...Western Montana...

CITY           SKY/WX    TMP DP  RH WIND       PRES   REMARKS
Kalispell      CLOUDY    40  30  67 S9        29.98R
Missoula       CLOUDY    42  32  67 CALM      30.04R

...Neighboring Cities...

CITY           SKY/WX    TMP DP  RH WIND       PRES   REMARKS
Seattle        CLOUDY    45  39  79 S13       30.05S
Portland       PTCLDY    43  41  93 SE5       30.13R
Boise          CLOUDY    40  37  89 E5        30.08S
Great Falls    CLOUDY    43  30  60 SW14      29.89R
Calgary        PTCLDY    41  19  42 W16       29.68R



USA.gov is the U.S. government's official web portal to all federal, state and local government web resources and services.